Weather in Sabancheyevo

Russia / Republic of Mordovia     54°34′58″N   46°16′53″E
temp.,
°C
wind,
m/s
gust,
m/s
humid.,
%
clouds,
%
prec.,
mm/h
press.,
hPa
HPBL,
m
19 january, tue
tue1900:00−20ene2296100 0.1 1019120
03:00−20ne1198100 0.2 101961
06:00−21ne1299100 0.3 101828
09:00−21nne1198100 0.4 101824
12:00−18w1294100 0.3 1018229
15:00−20nw2298100 0.3 101620
18:00−22wsw119992 0.0 101720
21:00−21w229896 0.1 101720
20 january, wed
wed2000:00−22w239996 0.0 101720
03:00−22wsw229992 0.1 101722
06:00−22wsw339987 0.1 101747
09:00−20w359882 0.1 1018121
12:00−17w369591 0.1 1018281
15:00−17w369695 0.1 1019212
18:00−18wsw469797 0.0 1020127
21:00−17w489798 0.1 1021151
21 january, thu
thu2100:00−17w489790 0.1 1021155
03:00−18w499788 0.1 1022165
06:00−17w489686 0.1 1023180
09:00−18wsw499786 0.1 1024184
12:00−15wsw589499 0.0 1023251
15:00−14sw6119299 0.0 1021288
18:00−14sw71389100 0.0 1019332
21:00−13sw91792100 0.1 1016427
22 january, fri
fri2200:00−11wsw101793100 1.4 1013636
03:00−9wsw91693100 2.3 1012619
06:00−6wsw81694100 1.0 1011647
09:00−2w81695100 2.2 1010709
12:000w81496100 0.9 1011760
15:00+1w71298100 1.2 1011553
18:00+1wsw61198100 0.1 1012415
21:00+1wsw71396100 0.2 1013472
23 january, sat
sat2300:00+1wsw61293100 0.0 1015521
03:000wsw61194100 0.0 1015522
06:00+1sw71295100 0.1 1015609
09:00+1sw71298100 0.1 1015458
12:00+1sw71496100 0.0 1016594
15:00+1sw61396100 0.0 1016577
18:00+1sw61297100 0.0 1017471
21:00+1ssw51097100 0.0 1017355